sat.trackr.live / text

‹ back to catalog

STARLINK-1371

NORAD 45542 · 2020-025M

PAYLOAD ACTIVE UNKNOWN

§ Identity

Operator
Country
US
Launch date
2020-04-22
Launch site
AFETR
Launch vehicle
Mass (kg)
RCS (m²)

Purposes: comms

External: N2YO · Heavens-Above · Gunter

§ Orbital elements

Epoch: 2026-09-19T06:54:07.982496Z

Period
91.06 min
Inclination
53.0362°
Eccentricity
0.0005943
Mean motion
15.81324525 rev/d
Perigee alt
322.7 km
Apogee alt
330.7 km
Semi-major
6,704.8 km
B*
4.1415e-4
RAAN
219.6309°
Arg perigee
69.3444°
Mean anomaly
290.8214°
Rev number
35,564

§ Raw data

STARLINK-13711 45542U 20025M   26262.28759239  .00083665  00000+0  41415-3 0  99972 45542  53.0362 219.6309 0005943  69.3444 290.8214 15.81324525355647

JSON: /api/v1/satellites/45542 · /tle

For live sub-satellite position, see the globe view (requires WebGL).

§ Visibility from observer

Set your observer location to see the next 7 days of passes ≥ 10°. The values pass through the URL so the page stays shareable.

No JS? Fill the form by hand. The geolocation button needs JavaScript.